User: anonymous   Login
Location: Unspecified
(0.0000°N, 0.0000°E)
Time: 08:59:59
(UTC+02:00)
Language:

ASC 2 Rocket - Orbit

View from above orbital plane
View from above orbital plane
View from above satellite
View from above satellite

Ground track
Ground track

The orbit data is extracted from the following two-line orbital elements,

1 21228U 91028B   16240.13980558  .00000354  00000-0  80179-4 0  9998
2 21228  24.0000 331.1546 1143182 221.1522 221.0815 12.53269834160864
Epoch (UTC): 27 August 2016 03:21:19
Eccentricity: 0.1143182
inclination: 24.0000°
perigee height: 556 km
apogee height: 2346 km
right ascension of ascending node: 331.1546°
argument of perigee: 221.1522°
revolutions per day: 12.53269834
mean anomaly at epoch: 221.0815°
orbit number at epoch: 16086

The dashed part of the orbit path shows where the satellite is in the earth's shadow,  

DLR